Miscellaneous Local Product
Issued by NWS Hastings, NE

Home | Current Version | Previous Version | Graphics & Text | Print | Product List | Glossary On
Versions: 1 2 3 4 5 6 7 8 9 10 11 12 13 14 15 16 17 18 19 20 21 22 23 24 25 26 27 28 29 30 31 32 33 34 35 36 37 38 39 40 41 42 43 44 45 46 47 48 49 50
717
AXUS43 KGID 211902
MISGRI

GID CWA HOURLY WEATHER ROUNDUP
NATIONAL WEATHER SERVICE HASTINGS NE
200 PM CDT FRI JUL 21 2017

NOTE: "FAIR" INDICATES FEW OR NO CLOUDS BELOW 12,000 FEET WITH NO
SIGNIFICANT WEATHER AND/OR OBSTRUCTIONS TO VISIBILITY.

...SOUTH CENTRAL NEBRASKA...

CITY           SKY/WX    TMP DP  RH WIND       PRES   REMARKS
GRAND ISLAND   SUNNY     93  72  50 SW15      29.83S HX 101
HASTINGS       SUNNY     91  69  48 SW12G20   29.84F HX  96
KEARNEY        SUNNY     91  72  53 SW12      29.85R HX  98
ORD            SUNNY     95  72  47 W8        29.80F HX 103
YORK           SUNNY     90  75  62 SW10      29.82S HX 100
AURORA         SUNNY     91  71  52 SW9G17    29.82S HX  96
LEXINGTON      SUNNY     94  77  57 SW6       29.85F HX 107
HOLDREGE       SUNNY     91  67  44 SW7       29.86S HX  95
HEBRON         SUNNY     98  69  39 S15G23    29.81F HX 104

...NEBRASKA PANHANDLE...

CITY           SKY/WX    TMP DP  RH WIND       PRES   REMARKS
CHADRON        SUNNY     95  50  21 N15G21    29.93S HX  92
ALLIANCE       CLOUDY    94  52  24 NW13      29.98F HX  91
SCOTTSBLUFF    SUNNY     95  54  25 NW8G18    30.00F HX  93
SIDNEY         SUNNY     96  45  17 N9        30.04F HX  92

...WESTERN AND NORTH CENTRAL NEBRASKA...

CITY           SKY/WX    TMP DP  RH WIND       PRES   REMARKS
VALENTINE      SUNNY    101  57  23 NW7       29.83F HX 100
AINSWORTH      SUNNY     92  71  49 SW3       29.84F HX  99
ONEILL         SUNNY     88  71  56 CALM      29.83S HX  93
BROKEN BOW     SUNNY     98  71  41 SW6       29.84F HX 106
IMPERIAL       SUNNY     99  51  19 MISG      29.93F HX  96
NORTH PLATTE   SUNNY     99  63  30 SW10      29.87F HX 101
MCCOOK         SUNNY    102  69  34 VRB3      29.86F HX 109

...EASTERN NEBRASKA...

CITY           SKY/WX    TMP DP  RH WIND       PRES   REMARKS
NORFOLK        SUNNY     93  68  43 SW15      29.78F HX  97
SO SIOUX CITY  CLOUDY    82  74  76 CALM      29.80R
TEKAMAH        CLOUDY    94  72  48 S10       29.76F HX 102
COLUMBUS       SUNNY     92  73  53 S9        29.80F HX 100
ALBION         SUNNY     95  73  47 S12       29.79F HX 104
OMAHA EPPLEY   MOSUNNY   99  72  41 S18G25    29.77F HX 108
OFFUTT AFB     SUNNY     96  75  50 S12       29.78F HX 107
MILLARD        SUNNY     98  75  48 S10G18    29.78F HX 111
LINCOLN        SUNNY     97  73  45 SW16      29.80S HX 107
NEBRASKA CITY  SUNNY     94  78  59 S12G20    29.82F HX 109
BEATRICE       SUNNY    100  71  38 S17       29.80F HX 109
FALLS CITY     NOT AVBL

...NORTHERN KANSAS...

CITY           SKY/WX    TMP DP  RH WIND       PRES   REMARKS
GOODLAND       SUNNY     98  63  31 SE10      29.96S HX 100
HILL CITY      SUNNY    105  57  20 S15G23    29.85F HX 104
NORTON         CLEAR    100  54  20 S8        29.85  HX  98
PHILLIPSBURG   SUNNY    104  57  21 S7G16     29.82F HX 103
SMITH CENTER   SUNNY     99  64  32 S15G24    29.82F HX 101
HAYS           SUNNY    103  63  27 SW17      29.86F HX 105
RUSSELL        SUNNY    103  62  26 S20G28    29.84F HX 105
CONCORDIA      SUNNY    103  64  28 SW16G26   29.82F HX 106
SALINA         SUNNY    106  63  24 S22       29.85F HX 109
TOPEKA         SUNNY     98  76  49 S18G25    29.86F HX 112



USA.gov is the U.S. government's official web portal to all federal, state and local government web resources and services.